Wind_Speed
16 16 15 14 12 11 13 15 16 17 17 17 16 18 20 20 18 17 16 14 13 13 12 11 11 10 10 10 10 10 10 9 9 9 9 8 8 8 8 8 8 8 8 8 7 7 6 6 5
16 15 14 13 12 12 15 17 18 18 18 17 17 19 21 22 20 20 19 17 16 15 13 13 12 11 11 11 11 11 11 10 10 10 10 9 9 9 9 9 9 9 9 9 8 8 7 7 6
15 15 14 12 12 15 18 20 19 19 19 18 19 20 21 22 23 22 22 21 18 17 16 14 13 13 12 12 13 12 12 12 11 11 10 10 10 10 10 10 10 9 9 9 9 9 9 8 7
15 14 14 13 14 18 20 21 20 19 20 20 20 21 22 22 23 23 22 22 20 18 17 15 15 15 14 14 14 14 13 13 12 12 11 11 11 11 11 10 11 11 10 11 11 10 10 9 8
14 14 13 14 17 19 20 20 20 19 21 21 22 23 23 23 24 23 22 22 21 20 18 17 15 15 15 15 15 15 15 14 13 13 13 12 12 12 12 11 12 12 11 12 12 11 11 10 10
14 13 14 16 20 21 21 20 19 20 21 23 23 24 24 23 23 23 22 21 20 20 17 16 16 16 16 17 17 17 17 16 15 15 14 14 13 13 12 12 12 12 12 13 13 13 12 12 11
13 13 15 18 20 21 20 19 20 21 22 23 24 25 24 23 22 23 23 21 20 20 18 17 16 16 17 17 18 18 18 17 17 16 16 15 14 14 13 13 13 13 13 13 13 14 13 13 13
13 14 17 20 21 21 20 19 20 20 21 23 25 26 25 23 23 24 20 20 19 18 17 17 17 17 17 18 18 18 18 18 18 17 17 16 16 15 15 15 14 14 14 14 14 14 14 14 14
14 15 18 21 23 20 18 17 19 20 21 24 25 27 27 25 24 22 21 21 19 17 17 17 17 17 18 18 18 18 18 18 18 18 17 17 17 16 16 16 15 15 15 15 15 15 15 15 15
15 18 20 22 22 20 18 17 18 20 22 24 25 26 27 26 26 23 22 20 18 16 17 16 14 15 18 19 18 18 18 18 18 18 18 17 17 17 17 17 17 16 16 17 16 16 17 17 16
19 22 23 22 20 18 17 17 19 20 21 22 23 25 27 27 27 26 23 20 17 16 16 15 15 14 15 17 17 17 17 18 18 18 18 18 18 18 18 18 18 18 18 18 18 18 18 18 18
22 25 25 22 19 18 18 18 20 21 21 21 20 23 25 25 26 26 25 21 15 12 12 12 13 13 13 14 16 16 17 18 19 19 19 19 19 19 19 19 18 18 18 18 18 18 19 19 20
24 25 23 21 19 19 19 20 21 22 21 20 20 21 21 22 24 24 20 17 15 12 12 13 12 11 12 14 16 17 17 19 19 20 20 20 20 20 20 20 20 20 20 20 19 19 19 20 20
25 26 23 22 21 21 21 21 22 22 22 21 19 19 20 21 21 20 19 18 17 14 13 11 12 12 12 14 15 16 17 18 18 20 21 21 21 21 20 20 21 21 21 21 21 21 21 21 21
25 26 24 22 20 20 21 21 21 21 21 19 17 16 17 18 17 18 19 18 16 15 14 14 12 13 14 15 17 17 18 19 19 20 21 21 21 21 22 22 22 22 22 22 23 22 22 22 22
24 24 22 20 18 18 18 19 19 19 18 17 15 14 13 14 15 16 17 16 15 15 13 13 12 13 15 16 17 18 18 20 21 21 20 20 21 22 23 23 23 23 24 24 23 24 24 23 24
20 19 18 17 14 15 15 15 15 16 16 16 15 14 13 13 13 14 14 14 15 14 14 15 15 15 15 16 18 18 19 21 22 23 22 22 23 23 23 24 24 24 25 25 25 25 25 25 24
15 16 15 13 11 12 14 13 13 14 15 15 14 13 13 12 11 12 13 13 14 15 14 15 16 16 17 18 19 19 21 21 23 24 24 24 24 24 25 25 25 26 26 26 26 26 26 26 26
14 14 13 11 10 11 12 14 14 14 14 14 14 14 12 10 9 11 12 13 15 16 16 16 16 16 18 19 19 21 23 24 24 25 26 26 26 26 26 26 27 27 27 28 28 27 27 27 27
12 11 11 11 12 13 15 16 16 17 17 16 14 13 11 10 10 11 12 13 15 17 18 17 17 18 18 19 21 22 24 25 26 26 27 27 27 27 28 27 28 28 28 28 28 28 28 27 27
10 10 10 10 11 15 16 16 18 18 17 16 15 14 11 11 11 13 13 13 15 17 18 18 18 19 19 20 21 22 23 24 25 26 27 28 28 28 28 28 28 28 29 29 29 29 28 28 27
10 10 10 11 11 14 16 17 17 18 19 16 14 13 13 12 12 12 12 13 15 16 17 18 19 19 20 20 22 22 23 24 26 26 27 28 28 29 29 29 29 29 29 29 30 30 29 29 29
11 11 11 12 12 13 16 18 19 19 18 16 15 14 13 11 12 13 13 14 15 16 17 18 18 19 20 21 22 23 24 25 26 26 27 27 28 28 28 29 29 29 28 29 29 30 30 30 30
13 14 13 14 14 15 17 19 20 20 19 17 16 14 12 11 12 13 14 15 16 16 17 18 18 19 19 20 21 22 23 24 24 25 25 26 26 27 27 28 28 29 29 29 29 30 30 30 29
14 15 15 16 16 16 17 19 19 19 18 18 17 14 12 12 12 13 14 16 16 17 17 18 18 19 19 20 20 21 21 22 23 24 24 25 25 25 26 27 27 28 28 28 28 29 29 29 29
14 14 15 16 16 16 18 18 17 16 16 16 16 16 14 13 13 14 15 16 16 17 17 18 19 19 20 20 21 21 21 22 22 22 23 23 24 24 25 25 26 26 27 27 28 27 27 28 28
13 14 15 15 16 15 16 16 15 15 15 14 14 15 14 13 13 14 15 16 17 18 18 19 20 21 21 21 21 21 21 21 21 21 22 22 22 23 23 24 24 25 25 25 26 25 25 26 26
14 15 16 16 16 15 15 15 14 16 16 15 14 14 15 15 15 15 16 17 19 20 20 21 21 21 21 21 21 21 21 21 21 21 21 21 22 22 22 22 23 22 22 23 23 23 23 24 25
15 16 17 17 17 17 17 16 16 16 15 13 13 13 14 14 16 17 18 20 21 21 22 22 22 22 22 22 22 22 22 22 22 22 22 22 22 22 22 22 22 22 21 21 21 22 23 23 24
16 18 18 18 18 17 17 17 16 17 17 16 16 15 15 16 17 18 20 21 22 23 23 23 23 23 23 23 23 23 23 23 23 22 22 22 22 22 22 21 22 22 22 21 21 21 22 22 23
Wind_Direction
253 253 250 245 235 222 209 208 216 224 228 235 244 255 264 269 270 273 270 269 266 263 258 246 244 240 234 230 229 229 230 233 235 238 241 248 255 261 266 272 278 286 293 295 295 293 292 295 298
250 249 245 238 226 207 201 205 211 223 230 233 242 253 261 265 268 269 268 266 262 262 259 248 246 242 237 233 232 232 233 235 238 241 245 250 255 261 266 272 276 282 288 291 292 291 291 292 297
248 245 240 226 210 197 197 206 214 222 229 234 243 250 257 260 263 264 264 262 260 260 258 245 242 243 239 236 234 233 235 237 239 242 246 250 254 258 265 271 274 279 285 286 289 290 289 289 294
246 240 233 216 197 194 203 211 215 227 235 237 243 252 257 260 262 262 261 257 255 254 250 245 241 241 237 235 233 233 235 237 240 242 244 248 252 256 261 267 272 276 279 283 286 287 286 284 287
242 234 222 203 194 194 202 211 217 228 242 247 250 255 259 262 265 260 256 254 250 247 244 244 241 239 236 236 235 236 236 237 240 242 244 247 252 256 260 264 269 273 275 278 281 283 284 281 282
238 231 212 198 195 197 202 211 219 230 241 249 258 262 264 268 268 260 254 245 241 240 241 236 237 237 237 237 237 237 237 238 240 243 246 249 253 256 260 263 267 270 272 273 275 277 279 278 277
233 221 206 199 199 201 205 214 223 234 245 253 258 262 264 266 265 264 255 245 236 237 232 228 233 237 237 236 236 236 237 239 241 243 246 249 252 255 259 262 264 267 269 271 272 273 273 275 275
227 210 199 198 198 204 211 220 231 241 248 256 259 263 265 264 267 261 247 244 241 229 227 228 232 237 237 236 237 238 238 240 243 244 247 249 253 256 257 260 262 263 265 267 268 268 268 270 272
215 199 193 196 200 205 213 227 241 247 250 254 259 262 265 264 264 253 245 242 238 233 232 230 230 234 237 235 236 238 239 241 244 246 247 249 252 256 259 261 262 264 266 266 265 265 264 266 268
198 191 190 197 202 208 217 230 244 252 254 254 258 260 262 264 266 262 256 242 231 228 230 236 236 239 240 237 235 237 238 240 244 246 249 250 252 257 260 262 263 266 267 267 264 263 263 265 265
191 190 191 195 202 211 222 234 242 250 257 258 258 258 262 263 267 265 259 249 231 221 223 233 239 238 239 236 233 237 240 242 244 247 251 252 255 259 261 263 264 265 267 267 265 263 263 264 265
191 193 194 196 203 216 228 236 244 252 257 261 264 263 265 266 268 269 262 253 235 223 228 237 240 241 246 244 241 241 243 245 246 247 251 255 258 261 263 265 265 264 266 267 266 267 264 264 265
194 196 198 202 208 219 228 235 243 251 255 261 265 269 267 267 269 265 262 263 254 242 248 254 247 244 250 245 242 243 245 247 246 248 252 253 256 259 262 264 267 267 264 264 264 265 265 265 264
196 199 201 206 213 219 226 236 244 251 256 261 265 265 266 269 274 275 273 281 282 274 268 263 252 247 246 247 243 242 241 246 250 254 253 253 255 258 261 262 263 265 265 266 269 268 267 267 266
198 203 205 209 221 224 228 235 245 251 256 262 266 267 271 271 277 276 279 292 293 284 282 277 266 254 253 249 247 246 248 250 252 252 255 254 255 256 259 261 262 264 267 267 270 269 267 266 265
201 204 206 209 220 227 230 236 243 250 257 263 265 272 277 278 282 285 290 297 297 290 285 286 279 270 260 252 249 249 254 256 258 259 258 257 256 258 260 262 264 265 267 268 268 267 266 266 266
202 202 203 204 214 222 230 237 244 252 257 264 269 275 280 283 287 292 296 296 296 296 289 287 281 277 272 265 261 256 257 258 260 261 260 260 259 261 262 261 263 265 266 266 267 266 265 265 266
190 189 192 197 205 221 232 242 251 260 265 270 272 277 285 285 284 289 291 293 295 296 293 289 283 282 275 269 266 264 262 261 262 263 261 261 262 262 262 262 263 264 265 266 265 264 265 265 266
184 185 190 197 208 224 233 243 254 263 271 275 280 281 285 286 290 290 290 293 295 295 295 296 287 283 278 275 273 270 267 264 263 263 263 262 262 263 264 264 264 264 265 265 264 263 265 265 265
186 191 197 204 208 222 234 241 252 262 270 279 281 282 286 289 292 293 292 293 295 295 295 295 288 284 281 279 277 273 270 267 265 264 263 263 264 264 265 266 265 265 266 266 264 262 264 266 265
186 191 195 204 212 220 232 243 255 266 271 279 280 283 284 285 289 292 292 293 294 294 294 292 289 287 285 281 278 276 273 270 268 266 265 264 264 265 265 266 265 265 265 265 263 261 262 264 264
193 194 199 202 213 224 235 249 261 267 276 281 279 283 286 284 285 288 290 294 297 297 296 293 290 288 285 282 279 277 275 274 270 268 267 266 265 265 266 266 265 266 265 264 262 261 261 261 262
204 208 212 218 229 235 243 257 269 272 273 276 279 283 284 285 285 287 291 294 296 298 297 296 293 290 287 284 280 278 277 276 274 271 269 267 267 267 266 266 266 267 266 266 264 262 261 262 261
211 216 223 229 239 244 250 258 268 274 275 278 280 280 277 279 282 285 289 291 293 295 296 296 296 294 290 287 283 282 281 278 277 274 271 269 268 267 267 266 266 267 267 267 266 263 261 260 259
216 218 226 234 242 247 253 262 268 274 272 273 276 277 275 272 276 283 285 288 291 294 296 295 296 295 292 290 288 285 284 282 280 278 274 270 268 268 268 267 266 267 267 267 265 263 261 259 257
218 224 231 239 246 250 255 263 268 272 277 276 270 271 271 271 277 284 284 287 291 294 296 296 296 295 294 291 289 287 287 286 283 280 276 271 269 269 269 269 268 268 267 266 264 263 260 258 256
222 228 238 248 254 261 265 270 273 275 288 286 277 271 270 271 276 282 287 291 293 296 297 298 296 294 293 291 289 287 287 286 284 282 280 277 274 272 271 271 270 268 266 265 265 261 259 258 257
231 235 242 252 257 264 270 274 283 287 289 289 284 272 269 272 276 283 286 292 295 295 297 298 296 294 292 291 290 288 286 285 283 282 281 278 275 274 274 272 272 270 268 266 265 261 260 260 258
242 246 252 258 265 271 281 285 290 300 297 294 291 287 279 279 282 287 287 292 295 295 295 295 294 292 291 291 291 289 287 285 284 283 281 279 276 274 274 274 272 270 268 266 265 264 262 261 260
248 250 254 260 265 271 278 288 296 302 300 297 297 288 283 285 286 288 290 291 293 294 293 292 292 292 290 290 289 288 286 284 283 282 280 279 277 274 274 274 273 270 268 267 266 265 264 261 259
Height
5882 5883 5885 5887 5889 5891 5891 5892 5891 5891 5891 5892 5893 5893 5894 5895 5897 5900 5897 5897 5898 5898 5898 5899 5899 5900 5900 5901 5901 5902 5903 5903 5904 5904 5904 5905 5905 5906 5906 5906 5907 5907 5906 5906 5905 5905 5904 5903 5903
5879 5880 5882 5884 5886 5887 5888 5888 5888 5888 5889 5890 5891 5892 5892 5893 5894 5894 5894 5895 5896 5896 5897 5897 5898 5898 5899 5900 5900 5901 5902 5902 5903 5903 5904 5904 5904 5905 5905 5906 5906 5906 5906 5905 5905 5904 5904 5903 5903
5875 5877 5879 5881 5883 5884 5885 5884 5884 5885 5886 5888 5889 5890 5890 5891 5891 5891 5892 5893 5893 5894 5894 5895 5895 5896 5897 5898 5898 5899 5900 5901 5901 5902 5902 5903 5903 5904 5904 5904 5905 5905 5905 5904 5904 5904 5903 5903 5902
5872 5874 5876 5878 5880 5881 5881 5881 5880 5881 5882 5884 5885 5887 5888 5888 5888 5888 5889 5889 5890 5891 5891 5892 5893 5893 5894 5895 5896 5897 5898 5899 5900 5900 5901 5902 5902 5902 5903 5903 5903 5904 5903 5903 5903 5903 5902 5902 5901
5868 5870 5873 5874 5876 5877 5877 5877 5876 5877 5878 5880 5882 5883 5884 5885 5884 5884 5885 5885 5886 5886 5887 5889 5890 5891 5892 5893 5894 5895 5896 5897 5898 5899 5899 5900 5900 5901 5901 5902 5902 5902 5902 5902 5902 5901 5901 5901 5900
5865 5867 5869 5871 5872 5873 5873 5874 5873 5874 5875 5876 5878 5879 5880 5882 5881 5880 5880 5880 5881 5881 5883 5884 5886 5888 5889 5890 5891 5892 5893 5895 5895 5896 5897 5898 5899 5899 5899 5900 5900 5900 5900 5900 5900 5900 5899 5899 5899
5862 5864 5866 5868 5869 5869 5870 5870 5870 5871 5872 5873 5874 5876 5876 5877 5877 5877 5877 5876 5877 5877 5879 5881 5883 5884 5885 5887 5888 5889 5890 5892 5892 5894 5895 5895 5896 5896 5897 5897 5897 5898 5898 5898 5898 5898 5897 5897 5897
5858 5862 5863 5865 5865 5866 5866 5867 5868 5869 5870 5871 5872 5872 5872 5874 5874 5873 5872 5872 5872 5873 5875 5877 5879 5881 5882 5883 5885 5886 5887 5888 5890 5890 5891 5892 5893 5893 5894 5894 5894 5895 5895 5895 5895 5895 5895 5895 5895
5855 5859 5859 5861 5861 5861 5862 5864 5866 5867 5868 5868 5868 5869 5869 5870 5871 5869 5868 5868 5868 5870 5872 5873 5875 5877 5878 5880 5881 5882 5884 5885 5886 5887 5888 5889 5889 5890 5890 5891 5891 5891 5892 5892 5892 5892 5892 5892 5892
5852 5855 5856 5857 5857 5858 5859 5861 5863 5864 5865 5865 5866 5866 5866 5867 5867 5866 5866 5865 5864 5866 5869 5870 5872 5874 5874 5876 5877 5879 5880 5881 5882 5883 5884 5885 5886 5886 5887 5887 5887 5888 5888 5888 5889 5889 5889 5889 5888
5848 5851 5852 5853 5853 5854 5856 5858 5860 5861 5861 5862 5862 5863 5863 5864 5863 5862 5861 5860 5861 5862 5864 5866 5868 5870 5871 5872 5874 5875 5876 5877 5878 5879 5880 5881 5882 5883 5883 5883 5883 5884 5884 5884 5885 5885 5885 5885 5885
5845 5847 5848 5849 5850 5852 5854 5855 5857 5858 5859 5859 5860 5860 5860 5860 5859 5858 5857 5856 5857 5858 5860 5862 5864 5866 5867 5869 5870 5872 5873 5874 5874 5875 5876 5877 5878 5879 5879 5879 5879 5880 5880 5880 5880 5880 5881 5881 5881
5841 5844 5845 5846 5848 5850 5852 5853 5854 5855 5856 5857 5858 5858 5857 5856 5855 5854 5853 5853 5853 5854 5857 5857 5860 5862 5863 5865 5866 5867 5869 5869 5870 5871 5872 5873 5874 5874 5874 5875 5875 5875 5875 5875 5876 5876 5876 5876 5876
5838 5840 5842 5844 5846 5847 5849 5850 5852 5852 5854 5855 5855 5855 5854 5853 5853 5852 5851 5852 5853 5852 5853 5855 5857 5858 5860 5861 5862 5863 5864 5865 5866 5867 5867 5868 5869 5869 5869 5870 5870 5871 5870 5871 5871 5871 5872 5872 5872
5834 5837 5839 5841 5843 5845 5847 5848 5849 5850 5851 5852 5853 5852 5852 5851 5850 5850 5850 5850 5849 5850 5851 5852 5852 5854 5856 5858 5859 5859 5859 5860 5861 5862 5862 5863 5863 5864 5864 5865 5865 5865 5865 5866 5866 5866 5866 5866 5866
5831 5834 5837 5840 5841 5843 5846 5846 5847 5848 5848 5849 5850 5850 5850 5849 5848 5848 5848 5847 5847 5848 5848 5849 5849 5851 5852 5853 5854 5855 5855 5855 5856 5857 5856 5857 5858 5858 5858 5859 5859 5860 5860 5860 5861 5860 5860 5861 5861
5830 5832 5835 5838 5840 5841 5842 5843 5844 5845 5845 5846 5847 5847 5846 5846 5846 5845 5845 5845 5845 5844 5843 5844 5846 5847 5847 5847 5848 5849 5849 5850 5851 5851 5851 5851 5852 5852 5852 5853 5853 5853 5854 5854 5855 5854 5854 5855 5855
5829 5831 5833 5836 5837 5838 5839 5840 5841 5842 5842 5842 5843 5843 5843 5843 5843 5842 5842 5842 5841 5840 5840 5840 5841 5842 5841 5842 5842 5842 5844 5844 5845 5845 5844 5845 5845 5846 5846 5847 5847 5847 5848 5848 5848 5848 5848 5849 5849
5826 5828 5831 5833 5835 5835 5836 5837 5838 5838 5839 5839 5839 5839 5839 5839 5839 5839 5839 5838 5837 5836 5836 5836 5837 5837 5837 5836 5836 5837 5838 5838 5839 5839 5839 5839 5839 5839 5840 5840 5840 5840 5841 5841 5841 5841 5841 5842 5842
5824 5826 5829 5831 5832 5833 5834 5834 5835 5835 5835 5836 5836 5836 5836 5836 5836 5836 5836 5835 5834 5833 5832 5832 5833 5833 5832 5831 5831 5831 5831 5832 5832 5832 5832 5832 5832 5832 5833 5833 5833 5834 5834 5834 5834 5834 5834 5835 5835
5823 5825 5827 5828 5830 5831 5832 5833 5832 5832 5832 5833 5833 5833 5833 5833 5833 5833 5832 5831 5831 5830 5829 5829 5828 5827 5827 5826 5825 5825 5825 5824 5825 5825 5825 5825 5825 5825 5825 5825 5826 5826 5827 5827 5827 5827 5828 5828 5828
5822 5823 5825 5826 5828 5828 5830 5830 5830 5829 5829 5830 5830 5830 5830 5830 5830 5829 5829 5828 5827 5826 5825 5824 5823 5822 5821 5820 5820 5819 5818 5818 5817 5817 5817 5817 5817 5817 5817 5817 5818 5818 5819 5819 5819 5820 5820 5821 5821
5821 5822 5823 5825 5826 5827 5827 5828 5828 5826 5826 5827 5827 5827 5827 5827 5826 5826 5825 5824 5823 5822 5821 5820 5818 5817 5816 5815 5814 5813 5812 5811 5810 5809 5809 5809 5809 5809 5810 5810 5810 5810 5811 5811 5811 5812 5812 5813 5814
5819 5821 5822 5823 5824 5825 5825 5825 5825 5824 5824 5823 5824 5823 5823 5823 5823 5822 5821 5820 5819 5818 5816 5815 5813 5812 5810 5809 5808 5806 5805 5804 5803 5802 5802 5802 5802 5802 5802 5802 5802 5803 5803 5803 5803 5803 5804 5805 5806
5818 5820 5821 5821 5822 5822 5823 5822 5823 5821 5820 5820 5820 5820 5819 5819 5819 5818 5817 5816 5815 5813 5811 5810 5808 5806 5805 5803 5802 5801 5799 5798 5797 5795 5795 5795 5795 5794 5794 5794 5794 5795 5795 5795 5795 5795 5796 5797 5798
5815 5817 5819 5819 5819 5820 5819 5819 5820 5818 5817 5816 5816 5815 5815 5814 5814 5814 5813 5812 5810 5808 5807 5805 5803 5801 5799 5798 5796 5795 5793 5792 5790 5789 5788 5788 5787 5787 5787 5787 5787 5787 5787 5787 5787 5787 5788 5789 5790
5813 5814 5815 5816 5816 5816 5816 5816 5816 5814 5813 5812 5812 5811 5811 5810 5810 5809 5808 5807 5805 5803 5801 5799 5797 5796 5794 5792 5790 5788 5787 5786 5784 5783 5782 5781 5781 5780 5780 5780 5780 5780 5780 5780 5780 5780 5780 5781 5782
5811 5812 5813 5813 5812 5812 5812 5812 5813 5811 5810 5809 5808 5807 5806 5806 5806 5805 5803 5801 5799 5798 5796 5793 5791 5789 5788 5786 5784 5782 5781 5780 5778 5777 5776 5775 5775 5774 5774 5773 5773 5773 5772 5772 5772 5773 5773 5774 5775
5809 5810 5809 5810 5810 5809 5808 5811 5809 5808 5806 5804 5804 5803 5802 5802 5802 5800 5798 5796 5794 5792 5789 5787 5785 5783 5781 5779 5777 5776 5774 5773 5772 5771 5770 5769 5768 5768 5767 5767 5766 5765 5765 5766 5766 5766 5767 5768 5768
5806 5806 5806 5807 5806 5806 5805 5808 5805 5803 5801 5800 5799 5798 5798 5798 5797 5795 5792 5790 5788 5785 5783 5781 5778 5776 5774 5773 5771 5769 5768 5767 5765 5764 5763 5762 5762 5761 5760 5760 5759 5759 5759 5759 5759 5760 5760 5761 5761